Regional Weather Roundup
Issued by NWS

Home | Current Version | Previous Version | Text Only | Print | Product List | Glossary On
Versions: 1 2 3 4 5 6 7 8 9 10 11 12 13 14 15 16 17 18 19 20 21 22 23 24 25 26 27 28 29 30 31 32 33 34 35 36 37 38 39 40 41 42 43 44 45 46 47 48 49 50
000
ASUS44 KLUB 101101
RWRTX
WEST TEXAS WEATHER ROUNDUP
NATIONAL WEATHER SERVICE LUBBOCK TX
500 AM CST WED FEB 10 2016

NOTE: "FAIR" INDICATES FEW OR NO CLOUDS BELOW 12,000 FEET WITH NO
SIGNIFICANT WEATHER AND/OR OBSTRUCTIONS TO VISIBILITY.

TXZ004-006>008-010-012-014-016-OKZ002-101200-
TEXAS PANHANDLE/OKLAHOMA PANHANDLE

CITY           SKY/WX    TMP DP  RH WIND       PRES   REMARKS
AMARILLO       CLOUDY    31  22  69 SW8       30.27F WCI  23
BORGER         CLEAR     34  24  67 W6        30.24F WCI  29
CANADIAN       CLOUDY    26  24  93 CALM      30.21F
DALHART        CLOUDY    32  18  56 W14       30.25F WCI  22
DUMAS          CLOUDY    30  21  68 SW10      30.24F WCI  21
GUYMON         CLEAR     38  22  52 W13       30.18F WCI  30
$$

TXZ026-029-035-045-048-101200-
SOUTHERN PANHANDLE/SOUTH PLAINS/ROLLING PLAINS

CITY           SKY/WX    TMP DP  RH WIND       PRES   REMARKS
CHILDRESS      CLEAR     33  24  69 S7        30.27F WCI  27
LUBBOCK        CLOUDY    27  17  66 W8        30.30F WCI  19
SNYDER           N/A     38  25  61 N7        30.31S WCI  32
$$

TXZ052-054-060>062-072-078-127-140-154-169-101200-
PERMIAN BASIN/CONCHO VALLEY/BIG COUNTRY/EDWARDS PLATEAU

CITY           SKY/WX    TMP DP  RH WIND       PRES   REMARKS
ABILENE        CLEAR     39  29  67 CALM      30.30S
BROWNWOOD      MOCLDY    32  27  80 MISG      30.33S
JUNCTION       CLEAR     31  23  72 CALM      30.33R
MIDLAND        PTCLDY    37  24  59 W5        30.32S WCI  33
ODESSA         PTCLDY    40  23  50 W6        30.32F
SAN ANGELO     CLEAR     32  22  66 CALM      30.31S
WINK           CLOUDY    30  20  66 N7        30.31F WCI  23
$$

TXZ055-058-074-075-080-082-101200-
FAR WEST/SOUTHWEST MOUNTAINS/TRANS PECOS

CITY           SKY/WX    TMP DP  RH WIND       PRES   REMARKS
DRYDEN           N/A     42  20  41 NW8       30.30S
EL PASO        CLEAR     37  18  46 NE5       30.34S WCI  33
FORT STOCKTON  CLEAR     41  22  46 W12       30.32S
GUADALUPE PASS CLOUDY    46  15  28 SW7       30.37F
MARFA          CLOUDY    25  15  66 N6        30.39S WCI  18
PECOS          CLOUDY    30  22  74 W6        30.34S WCI  24
PRESIDIO       FAIR      41  17  37 NW5       30.36R
$$

TXZ014-016-019-021>030-083-101200
TEXAS TECH WEST TEXAS MESONET/TEXAS PANHANDLE/NORTHERN SOUTH PLAINS

CITY           SKY/WX    TMP DP  RH WIND       PRES   REMARKS
ABERNATHY 5ENE   N/A     28  19  69 W8        30.30F WCI  20
AMARILLO 9NNE    N/A     23  18  81 S3        30.27F
AMARILLO 7SSE    N/A     27  20  74 W6        30.28S WCI  21
AMHERST 1NE      N/A     28  15  58 W6        30.31S WCI  21
BOOTLEG 11WNW    N/A     39  19  43 W14       30.31F WCI  31
CANADIAN 6E      N/A     28  24  84 NW7       30.20F WCI  21
CAPROCK CYN SP   N/A     37  24  59 CALM      30.28S
CHILDRESS 2NNE   N/A     35  25  67 S10       30.27S WCI  27
CLARENDON 2WSW   N/A     33  26  76 SW5       30.26F WCI  29
CLAUDE 12SW      N/A     40  22  48 W5        30.27S
DIMMITT 2NE      N/A     34  17  50 W12       30.29F WCI  26
FLOYDADA 2NNE    N/A     26  18  73 W7        30.28S WCI  18
FRIONA 2NE       N/A     27  18  69 W12       30.30F WCI  17
GOODLETT 3W      N/A     31  24  76 S10       30.27F WCI  22
HART 3N          N/A     24  15  68 W8        30.29F WCI  16
HEREFORD 2NW     N/A     27  16  63 W10       30.28F WCI  17
MEMPHIS 1NE      N/A     28  23  83 W2        30.27F
MULESHOE 2SSW    N/A     28  17  62 SW9       30.32S WCI  20
OLTON 6S         N/A     28  16  62 W9        30.30F WCI  19
PALO DURO SP     N/A     32  19  57 W10       30.28F WCI  24
PAMPA 2E         N/A     32  25  75 SW6       30.23F WCI  27
PLAINVIEW 1S     N/A     30  19  62 W5        30.28F WCI  26
SILVERTON 7ESE   N/A     29  20  68 W8        30.29S WCI  21
TULIA 2ENE       N/A     32  21  62 W9        30.28F WCI  25
TURKEY 2WSW      N/A     34  27  75 SW9       30.27S WCI  26
UMBARGER 3NNE    N/A     26  16  65 SW8       30.29S WCI  18
$$

TXZ033>036-039>041-045>048-101200
TEXAS TECH WEST TEXAS MESONET/SOUTH PLAINS

CITY           SKY/WX    TMP DP  RH WIND       PRES   REMARKS
AIKEN 3WSW       N/A     25  17  73 W7        30.30S WCI  17
ANDREWS 2NE      N/A     38  22  51 W6        30.33S WCI  33
ANTON 6SSW       N/A     27  16  62 W6        30.31F WCI  21
BROWNFIELD 2S    N/A     34  19  54 W10       30.32S WCI  26
DENVR CTY 7WNW   N/A     32  19  59 W9        30.32S WCI  24
GAIL 2ESE        N/A     42  20  40 NW3       30.29S
LAMESA 2SE       N/A     35  20  54 W7        30.32S WCI  29
LEVELLAND 4S     N/A     28  17  62 W7        30.32S WCI  21
LUBBOCK 3WNW     N/A     30  17  57 W6        30.32S WCI  24
MORTON 1ENE      N/A     29  17  60 W9        30.32S WCI  21
ODONNELL 1N      N/A     32  18  57 W12       30.31S WCI  23
PLAINS 3N        N/A     28  18  65 W8        30.32S WCI  20
RALLS 1SE        N/A     33  18  54 W8        30.30S WCI  25
REESE CENTER     N/A     28  18  64 W10       30.31S WCI  19
SEAGRAVES 1SW    N/A     31  20  64 W6        30.32S WCI  25
SEMINOLE 2NNE    N/A     35  20  54 W8        30.32S WCI  28
SLATON 2NE       N/A     33  20  59 W10       30.30F WCI  24
SNYDER 3E        N/A     42  25  51 N8        30.30R
SUNDOWN 8SW      N/A     31  16  53 W8        30.32S WCI  24
TAHOKA 3NNE      N/A     36  18  48 W10       30.30F WCI  28
WOLFFORTH 6SSW   N/A     35  17  46 W9        30.31F WCI  28
$$

TXZ031-032-036>038-042>044-101200-
TEXAS TECH WEST TEXAS MESONET/ROLLING PLAINS

CITY           SKY/WX    TMP DP  RH WIND       PRES   REMARKS
ASPERMONT 3NE    N/A     32  28  83 SW2       30.30S
FLUVANNA 3WNW    N/A     37  19  47 NW7       30.30S WCI  32
GRAHAM 5SSW      N/A     42  19  40 W15       30.30S
GUTHRIE 10WSW    N/A     37  28  70 SW2       30.28S
HASKELL 1NW      N/A     39  26  61 SE7       30.29S WCI  34
JAYTON 1SSE      N/A     31  26  81 W5        30.29F WCI  27
KNOX CITY 3NW    N/A     31  25  80 NE2       30.31S
NORTHFIELD 1S    N/A     31  28  88 SW5       30.28S WCI  26
ODELL 4ENE       N/A     30  27  86 SW8       30.28F WCI  23
PADUCAH 10SW     N/A     33  28  80 SE3       30.28F
POST 1NE         N/A     41  20  43 NW5       30.30S
RRING SPRGS 3N   N/A     36  28  75 W9        30.27F WCI  29
SEYMOUR 3NW      N/A     32  27  80 SW2       30.30F
SPUR 1W          N/A     31  26  84 W2        30.28F
WEINERT 2NNE     N/A     31  24  75 E2        30.30S
WHITE RVR 6NE    N/A     40  26  57 W2        30.29S
$$

TXZ052-054-060>062-072-078-127-140-154-169-101200-
TEXAS TECH WEST TEXAS MESONET/PERMIAN BASIN/
CONCHO VALLEY/BIG COUNTRY/EDWARDS PLATEAU

CITY           SKY/WX    TMP DP  RH WIND       PRES   REMARKS
COYANOSA 2N      N/A     31  22  71 W6        30.34R WCI  25
JUNCTION 1SSW    N/A     27  22  82 CALM      30.34R
MERTZON 3NNE     N/A     31  23  70 S5        30.32S WCI  27
SAN ANGELO 7NW   N/A     32  19  58 W2        30.32R
STRLNG CT 4WSW   N/A     26  22  82 SW3       30.32S
ST LAWRNCE 5SW   N/A     36  22  56 SW7       30.31F WCI  30
SWEETWATR 11SW   N/A     43  23  44 S3        30.32S
WALL 1E          N/A     34  20  57 SW8       30.32S WCI  27
$$

TXZ055-058-074-075-080-082-101200-
TEXAS TECH WEST TEXAS MESONET/FAR WEST/SOUTHWEST MOUNTAINS/TRANS PECOS

CITY           SKY/WX    TMP DP  RH WIND       PRES   REMARKS
PRSMN GAP BBNP   N/A     41  13  31 S2        30.34S
GUADLPE MTN NP   N/A     46  13  26 W9        30.37F
$$



USA.gov is the U.S. government's official web portal to all federal, state and local government web resources and services.